Time,TemperatureF,DewpointF,PressureIn,WindDirection,WindDirectionDegrees,WindSpeedMPH,WindSpeedGustMPH,Humidity,HourlyPrecipIn,Conditions,Clouds,dailyrainin,SoftwareType,DateUTC
2013-09-08 00:01:00,61.3,60.4,30.03,SW,215,0.0,0.0,97,0.00,,,0.00,meteohub,2013-09-08 04:01:00,
2013-09-08 00:02:00,61.2,60.3,30.03,SW,214,0.0,0.0,97,0.00,,,0.00,meteohub,2013-09-08 04:02:00,
2013-09-08 00:07:00,61.2,60.3,30.03,SW,215,0.0,0.0,97,0.00,,,0.00,meteohub,2013-09-08 04:07:00,
2013-09-08 00:12:00,61.2,60.3,30.03,SW,215,0.0,0.0,97,0.00,,,0.00,meteohub,2013-09-08 04:12:00,
2013-09-08 00:17:00,61.3,60.4,30.03,SW,215,0.0,0.0,97,0.00,,,0.00,meteohub,2013-09-08 04:17:00,
2013-09-08 00:22:00,61.3,60.4,30.03,SW,215,0.0,0.0,97,0.00,,,0.00,meteohub,2013-09-08 04:22:00,
2013-09-08 00:27:00,61.3,60.4,30.02,SW,215,0.0,0.0,97,0.00,,,0.00,meteohub,2013-09-08 04:27:00,
2013-09-08 00:32:00,61.2,60.3,30.03,SW,215,0.0,0.0,97,0.00,,,0.00,meteohub,2013-09-08 04:32:00,
2013-09-08 00:37:00,61.0,60.1,30.02,SW,215,0.0,0.0,97,0.00,,,0.00,meteohub,2013-09-08 04:37:00,
2013-09-08 00:42:00,61.0,60.1,30.02,SW,215,0.0,0.0,97,0.00,,,0.00,meteohub,2013-09-08 04:42:00,
2013-09-08 00:47:00,61.0,60.1,30.02,SW,215,0.0,0.0,97,0.00,,,0.00,meteohub,2013-09-08 04:47:00,
2013-09-08 00:52:00,61.0,60.1,30.02,SW,215,0.0,0.0,97,0.00,,,0.00,meteohub,2013-09-08 04:52:00,
2013-09-08 00:57:00,60.8,59.9,30.03,SW,215,0.0,0.0,97,0.00,,,0.00,meteohub,2013-09-08 04:57:00,
2013-09-08 01:02:00,61.0,60.1,30.03,SW,215,0.0,0.0,97,0.00,,,0.00,meteohub,2013-09-08 05:02:00,
2013-09-08 01:07:00,61.0,60.1,30.03,SW,215,0.0,0.0,97,0.00,,,0.00,meteohub,2013-09-08 05:07:00,
2013-09-08 01:12:00,61.0,60.1,30.03,SW,215,0.0,0.0,97,0.00,,,0.00,meteohub,2013-09-08 05:12:00,
2013-09-08 01:17:00,60.8,59.9,30.03,SW,215,0.0,0.0,97,0.00,,,0.00,meteohub,2013-09-08 05:17:00,
2013-09-08 01:22:00,60.6,59.7,30.03,SW,215,0.0,0.0,97,0.00,,,0.00,meteohub,2013-09-08 05:22:00,
2013-09-08 01:27:00,60.6,59.7,30.03,SW,215,0.0,0.0,97,0.00,,,0.00,meteohub,2013-09-08 05:27:00,
2013-09-08 01:32:00,60.4,59.5,30.03,SW,215,0.0,0.0,97,0.00,,,0.00,meteohub,2013-09-08 05:32:00,
2013-09-08 01:37:00,60.3,59.4,30.03,SW,215,0.0,0.0,97,0.00,,,0.00,meteohub,2013-09-08 05:37:00,
2013-09-08 01:42:00,60.3,59.4,30.03,SW,215,0.0,0.0,97,0.00,,,0.00,meteohub,2013-09-08 05:42:00,
2013-09-08 01:47:00,60.4,59.5,30.03,SW,215,0.0,0.0,97,0.00,,,0.00,meteohub,2013-09-08 05:47:00,
2013-09-08 01:52:00,60.4,59.5,30.03,SW,215,0.0,0.0,97,0.00,,,0.00,meteohub,2013-09-08 05:52:00,
2013-09-08 01:57:00,60.4,59.5,30.03,SW,215,0.0,0.0,97,0.00,,,0.00,meteohub,2013-09-08 05:57:00,
2013-09-08 02:02:00,60.4,59.5,30.03,SW,215,0.0,0.0,97,0.00,,,0.00,meteohub,2013-09-08 06:02:00,
2013-09-08 02:07:00,60.4,59.5,30.03,SW,215,0.0,0.0,97,0.00,,,0.00,meteohub,2013-09-08 06:07:00,
2013-09-08 02:13:00,60.3,59.4,30.03,SW,215,0.0,0.0,97,0.00,,,0.00,meteohub,2013-09-08 06:13:00,
2013-09-08 02:18:00,60.1,59.2,30.03,SW,215,0.0,0.0,97,0.00,,,0.00,meteohub,2013-09-08 06:18:00,
2013-09-08 02:23:00,60.1,59.2,30.03,SW,215,0.0,0.0,97,0.00,,,0.00,meteohub,2013-09-08 06:23:00,
2013-09-08 02:28:00,60.1,59.2,30.03,SW,215,0.0,0.0,97,0.00,,,0.00,meteohub,2013-09-08 06:28:00,
2013-09-08 02:33:00,59.7,58.8,30.02,SW,215,0.0,0.0,97,0.00,,,0.00,meteohub,2013-09-08 06:33:00,
2013-09-08 02:38:00,59.7,58.8,30.02,SW,214,0.0,0.0,97,0.00,,,0.00,meteohub,2013-09-08 06:38:00,
2013-09-08 02:43:00,59.7,58.8,30.02,SW,214,0.0,0.0,97,0.00,,,0.00,meteohub,2013-09-08 06:43:00,
2013-09-08 02:48:00,59.5,58.6,30.02,SW,215,0.0,0.0,97,0.00,,,0.00,meteohub,2013-09-08 06:48:00,
2013-09-08 02:53:00,59.5,58.6,30.02,SW,215,0.0,0.0,97,0.00,,,0.00,meteohub,2013-09-08 06:53:00,
2013-09-08 02:58:00,59.7,58.8,30.02,SW,215,0.0,0.0,97,0.00,,,0.00,meteohub,2013-09-08 06:58:00,
2013-09-08 03:03:00,59.7,58.8,30.02,SW,215,0.0,0.0,97,0.00,,,0.00,meteohub,2013-09-08 07:03:00,
2013-09-08 03:08:00,59.7,58.8,30.01,SW,215,0.0,0.0,97,0.00,,,0.00,meteohub,2013-09-08 07:08:00,
2013-09-08 03:13:00,59.7,58.8,30.01,SW,215,0.0,0.0,97,0.00,,,0.00,meteohub,2013-09-08 07:13:00,
2013-09-08 03:18:00,59.7,58.8,30.01,SW,214,0.0,0.0,97,0.00,,,0.00,meteohub,2013-09-08 07:18:00,
2013-09-08 03:23:00,59.7,58.8,30.01,SW,215,0.0,0.0,97,0.00,,,0.00,meteohub,2013-09-08 07:23:00,
2013-09-08 03:28:00,59.4,58.5,30.01,SW,215,0.0,0.0,97,0.00,,,0.00,meteohub,2013-09-08 07:28:00,
2013-09-08 03:33:00,59.2,58.3,30.01,SW,215,0.0,0.0,97,0.00,,,0.00,meteohub,2013-09-08 07:33:00,
2013-09-08 03:38:00,59.2,58.3,30.01,SW,215,0.0,0.0,97,0.00,,,0.00,meteohub,2013-09-08 07:38:00,
2013-09-08 03:43:00,59.2,58.3,30.01,SW,215,0.0,0.0,97,0.00,,,0.00,meteohub,2013-09-08 07:43:00,
2013-09-08 03:48:00,59.0,58.1,30.01,SW,215,0.0,0.0,97,0.00,,,0.00,meteohub,2013-09-08 07:48:00,
2013-09-08 03:53:00,59.2,58.3,30.01,SW,215,0.0,0.0,97,0.00,,,0.00,meteohub,2013-09-08 07:53:00,
2013-09-08 03:58:00,59.0,58.1,30.01,SW,215,0.0,0.0,97,0.00,,,0.00,meteohub,2013-09-08 07:58:00,
2013-09-08 04:03:00,58.8,57.9,30.01,SW,215,0.0,0.0,97,0.00,,,0.00,meteohub,2013-09-08 08:03:00,
2013-09-08 04:08:00,58.5,57.6,30.01,SW,215,0.0,0.0,97,0.00,,,0.00,meteohub,2013-09-08 08:08:00,
2013-09-08 04:13:00,58.5,57.6,30.00,SW,215,0.0,0.0,97,0.00,,,0.00,meteohub,2013-09-08 08:13:00,
2013-09-08 04:18:00,58.6,57.7,30.00,SW,215,0.0,0.0,97,0.00,,,0.00,meteohub,2013-09-08 08:18:00,
2013-09-08 04:23:00,58.6,57.7,30.01,SW,214,0.0,0.0,97,0.00,,,0.00,meteohub,2013-09-08 08:23:00,
2013-09-08 04:28:00,58.6,57.7,30.01,SW,215,0.0,0.0,97,0.00,,,0.00,meteohub,2013-09-08 08:28:00,
2013-09-08 04:33:00,58.5,57.6,30.00,SW,215,0.0,0.0,97,0.00,,,0.00,meteohub,2013-09-08 08:33:00,
2013-09-08 04:38:00,58.5,57.6,30.00,SW,215,0.0,0.0,97,0.00,,,0.00,meteohub,2013-09-08 08:38:00,
2013-09-08 04:43:00,58.3,57.4,30.00,SW,215,0.0,0.0,97,0.00,,,0.00,meteohub,2013-09-08 08:43:00,
2013-09-08 04:48:00,58.1,57.2,30.00,SW,216,0.0,0.0,97,0.00,,,0.00,meteohub,2013-09-08 08:48:00,
2013-09-08 04:53:00,57.9,57.0,30.00,SW,215,0.0,0.0,97,0.00,,,0.00,meteohub,2013-09-08 08:53:00,
2013-09-08 04:58:00,58.3,57.4,30.00,SW,215,0.0,0.0,97,0.00,,,0.00,meteohub,2013-09-08 08:58:00,
2013-09-08 05:03:00,58.3,57.4,30.00,SW,215,0.0,0.0,97,0.00,,,0.00,meteohub,2013-09-08 09:03:00,
2013-09-08 05:08:00,58.6,57.7,30.00,SW,215,0.0,0.0,97,0.00,,,0.00,meteohub,2013-09-08 09:08:00,
2013-09-08 05:13:00,58.6,57.7,30.00,SW,215,0.0,0.0,97,0.00,,,0.00,meteohub,2013-09-08 09:13:00,
2013-09-08 05:18:00,58.6,57.7,30.00,SW,214,0.0,0.0,97,0.00,,,0.00,meteohub,2013-09-08 09:18:00,
2013-09-08 05:23:00,58.6,57.7,30.00,SW,215,0.0,0.0,97,0.00,,,0.00,meteohub,2013-09-08 09:23:00,
2013-09-08 05:28:00,58.6,57.7,29.99,SW,214,0.0,0.0,97,0.00,,,0.00,meteohub,2013-09-08 09:28:00,
2013-09-08 05:33:00,58.8,57.9,29.99,SW,215,0.0,0.0,97,0.00,,,0.00,meteohub,2013-09-08 09:33:00,
2013-09-08 05:38:00,58.8,57.9,29.99,SW,215,0.0,0.0,97,0.00,,,0.00,meteohub,2013-09-08 09:38:00,
2013-09-08 05:43:00,58.8,57.9,29.99,SW,215,0.0,0.0,97,0.00,,,0.00,meteohub,2013-09-08 09:43:00,
2013-09-08 05:48:00,58.6,57.7,29.99,SW,215,0.0,0.0,97,0.00,,,0.00,meteohub,2013-09-08 09:48:00,
2013-09-08 05:53:00,58.6,57.7,29.99,SW,215,0.0,0.0,97,0.00,,,0.00,meteohub,2013-09-08 09:53:00,
2013-09-08 05:58:00,58.6,57.7,29.99,SW,215,0.0,0.0,97,0.00,,,0.00,meteohub,2013-09-08 09:58:00,
2013-09-08 06:03:00,58.8,57.9,29.99,SW,215,0.0,0.0,97,0.00,,,0.00,meteohub,2013-09-08 10:03:00,
2013-09-08 06:08:00,58.6,57.7,29.99,SW,215,0.0,0.0,97,0.00,,,0.00,meteohub,2013-09-08 10:08:00,
2013-09-08 06:14:00,58.5,57.6,29.99,SW,214,0.0,0.0,97,0.00,,,0.00,meteohub,2013-09-08 10:14:00,
2013-09-08 06:19:00,58.5,57.6,29.99,SW,215,0.0,0.0,97,0.00,,,0.00,meteohub,2013-09-08 10:19:00,
2013-09-08 06:24:00,58.3,57.4,30.00,SW,215,0.0,0.0,97,0.00,,,0.00,meteohub,2013-09-08 10:24:00,
2013-09-08 06:29:00,57.9,57.0,30.00,SW,215,0.0,0.0,97,0.00,,,0.00,meteohub,2013-09-08 10:29:00,
2013-09-08 06:34:00,58.3,57.4,30.00,SW,215,0.0,0.0,97,0.00,,,0.00,meteohub,2013-09-08 10:34:00,
2013-09-08 06:39:00,58.3,57.4,30.00,SW,215,0.0,0.0,97,0.00,,,0.00,meteohub,2013-09-08 10:39:00,
2013-09-08 06:44:00,58.5,57.6,30.00,SW,215,0.0,0.0,97,0.00,,,0.00,meteohub,2013-09-08 10:44:00,
2013-09-08 06:49:00,58.3,57.4,30.00,SW,216,0.0,0.0,97,0.00,,,0.00,meteohub,2013-09-08 10:49:00,
2013-09-08 06:54:00,58.3,57.4,30.01,SW,215,0.0,0.0,97,0.00,,,0.00,meteohub,2013-09-08 10:54:00,
2013-09-08 06:59:00,58.3,57.4,30.01,SW,215,0.0,0.0,97,0.00,,,0.00,meteohub,2013-09-08 10:59:00,
2013-09-08 07:04:00,58.1,57.2,30.01,SW,215,0.0,0.0,97,0.00,,,0.00,meteohub,2013-09-08 11:04:00,
2013-09-08 07:09:00,58.5,57.6,30.01,SW,215,0.0,0.0,97,0.00,,,0.00,meteohub,2013-09-08 11:09:00,
2013-09-08 07:14:00,58.6,57.7,30.01,SW,215,0.0,0.0,97,0.00,,,0.00,meteohub,2013-09-08 11:14:00,
2013-09-08 07:19:00,58.5,57.6,30.01,SW,215,0.0,0.0,97,0.00,,,0.00,meteohub,2013-09-08 11:19:00,
2013-09-08 07:24:00,58.3,57.4,30.01,SW,215,0.0,0.0,97,0.00,,,0.00,meteohub,2013-09-08 11:24:00,
2013-09-08 07:29:00,58.5,57.6,30.01,SW,215,0.0,0.0,97,0.00,,,0.00,meteohub,2013-09-08 11:29:00,
2013-09-08 07:34:00,58.5,57.6,30.02,SW,215,0.0,0.0,97,0.00,,,0.00,meteohub,2013-09-08 11:34:00,
2013-09-08 07:39:00,58.6,57.7,30.02,SW,214,0.0,0.0,97,0.00,,,0.00,meteohub,2013-09-08 11:39:00,
2013-09-08 07:44:00,58.6,57.7,30.01,SW,215,0.0,0.0,97,0.01,,,0.01,meteohub,2013-09-08 11:44:00,
2013-09-08 07:49:00,58.6,57.7,30.01,SW,215,0.0,0.0,97,0.01,,,0.01,meteohub,2013-09-08 11:49:00,
2013-09-08 07:54:00,58.6,57.7,30.01,SW,215,0.0,0.0,97,0.01,,,0.01,meteohub,2013-09-08 11:54:00,
2013-09-08 07:59:00,58.5,57.6,30.01,SW,215,0.0,0.0,97,0.01,,,0.01,meteohub,2013-09-08 11:59:00,
2013-09-08 08:04:00,58.5,57.6,30.02,SW,215,0.0,0.0,97,0.01,,,0.01,meteohub,2013-09-08 12:04:00,
2013-09-08 08:09:00,58.6,57.7,30.02,North,11,0.0,0.0,97,0.01,,,0.01,meteohub,2013-09-08 12:09:00,
2013-09-08 08:14:00,59.2,58.3,30.01,North,8,0.0,0.0,97,0.01,,,0.01,meteohub,2013-09-08 12:14:00,
2013-09-08 08:19:00,60.3,59.7,30.01,North,9,0.0,0.0,98,0.01,,,0.01,meteohub,2013-09-08 12:19:00,
2013-09-08 08:24:00,61.2,60.6,30.01,North,9,0.0,0.0,98,0.01,,,0.01,meteohub,2013-09-08 12:24:00,
2013-09-08 08:29:00,62.1,61.5,30.01,North,8,0.0,0.0,98,0.01,,,0.01,meteohub,2013-09-08 12:29:00,
2013-09-08 08:34:00,62.6,62.1,30.01,North,5,0.0,0.0,98,0.01,,,0.01,meteohub,2013-09-08 12:34:00,
2013-09-08 08:39:00,63.1,62.6,30.01,North,5,0.0,0.0,98,0.01,,,0.01,meteohub,2013-09-08 12:39:00,
2013-09-08 08:44:00,63.9,63.0,30.01,ESE,108,0.0,0.0,97,0.00,,,0.01,meteohub,2013-09-08 12:44:00,
2013-09-08 08:49:00,64.8,64.2,30.01,SE,125,0.0,0.0,98,0.00,,,0.01,meteohub,2013-09-08 12:49:00,
2013-09-08 08:54:00,65.5,64.9,30.01,SE,127,0.0,0.0,98,0.00,,,0.01,meteohub,2013-09-08 12:54:00,
2013-09-08 08:59:00,66.6,66.0,30.01,SE,127,0.0,0.0,98,0.00,,,0.01,meteohub,2013-09-08 12:59:00,
2013-09-08 09:04:00,66.7,65.8,30.01,NE,35,0.0,0.0,97,0.00,,,0.01,meteohub,2013-09-08 13:04:00,
2013-09-08 09:09:00,66.4,64.9,30.01,North,5,0.0,0.0,95,0.00,,,0.01,meteohub,2013-09-08 13:09:00,
2013-09-08 09:14:00,65.8,64.0,30.01,ESE,120,0.0,0.0,94,0.00,,,0.01,meteohub,2013-09-08 13:14:00,
2013-09-08 09:19:00,66.6,64.8,30.01,NNE,15,0.0,1.0,94,0.00,,,0.01,meteohub,2013-09-08 13:19:00,
2013-09-08 09:24:00,67.3,64.9,30.01,NNE,27,0.0,1.0,92,0.00,,,0.01,meteohub,2013-09-08 13:24:00,
2013-09-08 09:29:00,67.5,64.4,30.01,ENE,73,0.0,1.0,90,0.00,,,0.01,meteohub,2013-09-08 13:29:00,
2013-09-08 09:34:00,67.6,64.6,30.01,NE,50,3.0,4.0,90,0.00,,,0.01,meteohub,2013-09-08 13:34:00,
2013-09-08 09:39:00,68.0,64.6,30.02,ENE,61,1.0,4.0,89,0.00,,,0.01,meteohub,2013-09-08 13:39:00,
2013-09-08 09:44:00,68.4,64.9,30.01,East,100,2.0,4.0,89,0.00,,,0.01,meteohub,2013-09-08 13:44:00,
2013-09-08 09:49:00,68.7,65.3,30.02,NE,41,0.0,4.0,89,0.00,,,0.01,meteohub,2013-09-08 13:49:00,
2013-09-08 09:54:00,69.4,65.7,30.01,NNE,23,0.0,3.0,88,0.00,,,0.01,meteohub,2013-09-08 13:54:00,
2013-09-08 10:00:00,70.2,65.8,30.01,South,186,0.0,3.0,86,0.00,,,0.01,meteohub,2013-09-08 14:00:00,
2013-09-08 10:05:00,70.9,66.6,30.01,NNE,13,0.0,2.0,86,0.00,,,0.01,meteohub,2013-09-08 14:05:00,
2013-09-08 10:10:00,71.1,66.0,30.01,ENE,61,1.0,2.0,84,0.00,,,0.01,meteohub,2013-09-08 14:10:00,
2013-09-08 10:15:00,71.1,65.7,30.01,NNE,28,0.0,4.0,83,0.00,,,0.01,meteohub,2013-09-08 14:15:00,
2013-09-08 10:20:00,71.4,66.7,30.01,NE,44,3.0,4.0,85,0.00,,,0.01,meteohub,2013-09-08 14:20:00,
2013-09-08 10:25:00,71.4,66.4,30.01,NE,49,1.0,4.0,84,0.00,,,0.01,meteohub,2013-09-08 14:25:00,
2013-09-08 10:30:00,72.0,66.6,30.01,NNE,13,4.0,4.0,83,0.00,,,0.01,meteohub,2013-09-08 14:30:00,
2013-09-08 10:35:00,72.1,65.7,30.01,NNE,18,2.0,3.0,80,0.00,,,0.01,meteohub,2013-09-08 14:35:00,
2013-09-08 10:40:00,72.0,65.1,30.01,East,96,2.0,5.0,79,0.00,,,0.01,meteohub,2013-09-08 14:40:00,
2013-09-08 10:45:00,71.6,64.8,30.01,ENE,58,0.0,5.0,79,0.00,,,0.01,meteohub,2013-09-08 14:45:00,
2013-09-08 10:50:00,71.8,65.3,30.01,NE,39,3.0,4.0,80,0.00,,,0.01,meteohub,2013-09-08 14:50:00,
2013-09-08 10:55:00,72.1,64.9,30.01,NE,54,1.0,5.0,78,0.00,,,0.01,meteohub,2013-09-08 14:55:00,
2013-09-08 11:00:00,72.0,64.4,30.01,NE,37,3.0,5.0,77,0.00,,,0.01,meteohub,2013-09-08 15:00:00,
2013-09-08 11:05:00,71.8,64.6,30.01,NE,34,1.0,5.0,78,0.00,,,0.01,meteohub,2013-09-08 15:05:00,
2013-09-08 11:10:00,71.8,64.9,30.01,East,86,0.0,5.0,79,0.00,,,0.01,meteohub,2013-09-08 15:10:00,
2013-09-08 11:15:00,72.7,65.5,30.00,NNE,18,2.0,4.0,78,0.00,,,0.01,meteohub,2013-09-08 15:15:00,
2013-09-08 11:20:00,72.9,65.3,30.01,NNE,27,3.0,5.0,77,0.00,,,0.01,meteohub,2013-09-08 15:20:00,
2013-09-08 11:25:00,72.7,65.1,30.01,NE,44,2.0,5.0,77,0.00,,,0.01,meteohub,2013-09-08 15:25:00,
2013-09-08 11:30:00,72.7,65.1,30.01,NE,50,0.0,5.0,77,0.00,,,0.01,meteohub,2013-09-08 15:30:00,
2013-09-08 11:35:00,72.7,65.5,30.01,NNW,339,0.0,5.0,78,0.00,,,0.01,meteohub,2013-09-08 15:35:00,
2013-09-08 11:40:00,72.7,65.8,30.01,NNW,339,0.0,5.0,79,0.00,,,0.01,meteohub,2013-09-08 15:40:00,
2013-09-08 11:45:00,72.7,65.1,30.01,ENE,58,0.0,2.0,77,0.00,,,0.01,meteohub,2013-09-08 15:45:00,
2013-09-08 11:50:00,73.2,66.0,30.00,NE,46,0.0,1.0,78,0.00,,,0.01,meteohub,2013-09-08 15:50:00,
2013-09-08 11:55:00,74.3,65.1,30.00,South,184,0.0,1.0,73,0.00,,,0.01,meteohub,2013-09-08 15:55:00,
2013-09-08 12:00:00,75.0,65.3,30.00,ESE,117,0.0,0.0,72,0.00,,,0.01,meteohub,2013-09-08 16:00:00,
2013-09-08 12:05:00,75.6,65.1,30.00,ESE,113,0.0,0.0,70,0.00,,,0.01,meteohub,2013-09-08 16:05:00,
2013-09-08 12:10:00,75.4,65.7,30.00,NNE,27,0.0,0.0,72,0.00,,,0.01,meteohub,2013-09-08 16:10:00,
2013-09-08 12:15:00,75.2,64.8,30.00,NNE,20,2.0,3.0,70,0.00,,,0.01,meteohub,2013-09-08 16:15:00,
2013-09-08 12:20:00,74.8,64.0,30.00,NE,49,2.0,3.0,69,0.00,,,0.01,meteohub,2013-09-08 16:20:00,
2013-09-08 12:25:00,74.3,64.2,30.00,NNE,18,2.0,7.0,71,0.00,,,0.01,meteohub,2013-09-08 16:25:00,
2013-09-08 12:30:00,73.9,63.5,30.00,NE,39,4.0,7.0,70,0.00,,,0.01,meteohub,2013-09-08 16:30:00,
2013-09-08 12:35:00,73.9,63.1,30.00,NE,35,1.0,5.0,69,0.00,,,0.01,meteohub,2013-09-08 16:35:00,
2013-09-08 12:40:00,74.5,63.7,30.00,NNE,12,0.0,5.0,69,0.00,,,0.01,meteohub,2013-09-08 16:40:00,
2013-09-08 12:45:00,74.7,63.3,30.00,NNE,28,3.0,5.0,68,0.00,,,0.01,meteohub,2013-09-08 16:45:00,
2013-09-08 12:50:00,74.5,63.1,30.00,NNE,23,2.0,5.0,68,0.00,,,0.01,meteohub,2013-09-08 16:50:00,
2013-09-08 12:55:00,74.7,63.3,30.00,NE,37,2.0,5.0,68,0.00,,,0.01,meteohub,2013-09-08 16:55:00,
2013-09-08 13:00:00,74.8,63.1,30.00,NE,50,2.0,5.0,67,0.00,,,0.01,meteohub,2013-09-08 17:00:00,
2013-09-08 13:05:00,75.0,64.2,30.00,NNE,16,0.0,5.0,69,0.00,,,0.01,meteohub,2013-09-08 17:05:00,
2013-09-08 13:10:00,75.6,64.8,30.00,West,267,0.0,5.0,69,0.00,,,0.01,meteohub,2013-09-08 17:10:00,
2013-09-08 13:15:00,75.6,64.2,30.00,North,7,1.0,5.0,68,0.00,,,0.01,meteohub,2013-09-08 17:15:00,
2013-09-08 13:20:00,75.4,64.0,29.99,NNE,26,0.0,3.0,68,0.00,,,0.01,meteohub,2013-09-08 17:20:00,
2013-09-08 13:25:00,75.6,64.2,29.99,ENE,58,0.0,3.0,68,0.00,,,0.01,meteohub,2013-09-08 17:25:00,
2013-09-08 13:30:00,75.7,64.4,29.99,NNE,20,4.0,4.0,68,0.00,,,0.01,meteohub,2013-09-08 17:30:00,
2013-09-08 13:35:00,75.4,63.7,30.00,NNE,30,1.0,6.0,67,0.00,,,0.01,meteohub,2013-09-08 17:35:00,
2013-09-08 13:40:00,74.8,64.0,30.00,NE,34,3.0,6.0,69,0.00,,,0.01,meteohub,2013-09-08 17:40:00,
2013-09-08 13:45:00,74.5,64.0,30.00,NNE,20,3.0,6.0,70,0.00,,,0.01,meteohub,2013-09-08 17:45:00,
2013-09-08 13:50:00,73.9,64.4,30.00,NE,47,2.0,5.0,72,0.00,,,0.01,meteohub,2013-09-08 17:50:00,
2013-09-08 13:56:00,73.6,64.8,30.00,NE,51,2.0,5.0,74,0.00,,,0.01,meteohub,2013-09-08 17:56:00,
2013-09-08 14:01:00,72.9,64.8,30.00,NE,49,4.0,6.0,76,0.00,,,0.01,meteohub,2013-09-08 18:01:00,
2013-09-08 14:06:00,72.7,65.5,30.00,NNW,338,0.0,6.0,78,0.00,,,0.01,meteohub,2013-09-08 18:06:00,
2013-09-08 14:11:00,72.1,64.6,30.00,ENE,71,1.0,5.0,77,0.00,,,0.01,meteohub,2013-09-08 18:11:00,
2013-09-08 14:16:00,72.0,65.1,29.99,ENE,72,1.0,5.0,79,0.00,,,0.01,meteohub,2013-09-08 18:16:00,
2013-09-08 14:21:00,71.8,65.3,29.99,NE,49,0.0,4.0,80,0.00,,,0.01,meteohub,2013-09-08 18:21:00,
2013-09-08 14:26:00,71.6,65.1,29.99,NE,39,0.0,3.0,80,0.00,,,0.01,meteohub,2013-09-08 18:26:00,
2013-09-08 14:31:00,71.4,64.9,29.99,ENE,67,0.0,3.0,80,0.00,,,0.01,meteohub,2013-09-08 18:31:00,
2013-09-08 14:36:00,71.8,65.3,29.99,ENE,64,0.0,3.0,80,0.00,,,0.01,meteohub,2013-09-08 18:36:00,
2013-09-08 14:41:00,72.3,65.1,29.99,West,281,0.0,3.0,78,0.00,,,0.01,meteohub,2013-09-08 18:41:00,
2013-09-08 14:46:00,73.2,65.1,29.98,SE,132,0.0,3.0,76,0.00,,,0.01,meteohub,2013-09-08 18:46:00,
2013-09-08 14:51:00,73.9,64.8,29.98,East,79,0.0,4.0,73,0.00,,,0.01,meteohub,2013-09-08 18:51:00,
2013-09-08 14:56:00,74.3,65.1,29.98,NNE,33,0.0,4.0,73,0.00,,,0.01,meteohub,2013-09-08 18:56:00,
2013-09-08 15:01:00,74.7,65.8,29.98,SW,230,0.0,4.0,74,0.00,,,0.01,meteohub,2013-09-08 19:01:00,
2013-09-08 15:06:00,74.7,65.5,29.98,SW,225,0.0,2.0,73,0.00,,,0.01,meteohub,2013-09-08 19:06:00,
2013-09-08 15:11:00,74.7,66.6,29.98,SW,217,0.0,1.0,76,0.00,,,0.01,meteohub,2013-09-08 19:11:00,
2013-09-08 15:16:00,74.8,65.7,29.98,SW,217,0.0,1.0,73,0.00,,,0.01,meteohub,2013-09-08 19:16:00,
2013-09-08 15:21:00,75.2,64.8,29.98,SE,132,0.0,1.0,70,0.00,,,0.01,meteohub,2013-09-08 19:21:00,
2013-09-08 15:26:00,75.7,65.3,29.98,SE,132,0.0,1.0,70,0.00,,,0.01,meteohub,2013-09-08 19:26:00,
2013-09-08 15:31:00,76.3,66.2,29.97,NNE,13,0.0,1.0,71,0.00,,,0.01,meteohub,2013-09-08 19:31:00,
2013-09-08 15:36:00,75.7,65.3,29.98,NE,49,2.0,2.0,70,0.00,,,0.01,meteohub,2013-09-08 19:36:00,
2013-09-08 15:41:00,75.0,66.2,29.97,NNE,23,0.0,4.0,74,0.00,,,0.01,meteohub,2013-09-08 19:41:00,
2013-09-08 15:46:00,74.8,64.0,29.97,NNE,22,0.0,4.0,69,0.00,,,0.01,meteohub,2013-09-08 19:46:00,
2013-09-08 15:51:00,74.8,64.0,29.97,NNE,27,0.0,4.0,69,0.00,,,0.01,meteohub,2013-09-08 19:51:00,
2013-09-08 15:56:00,75.0,64.6,29.96,NNE,27,0.0,0.0,70,0.00,,,0.01,meteohub,2013-09-08 19:56:00,
2013-09-08 16:01:00,75.4,66.6,29.97,NNE,18,0.0,0.0,74,0.00,,,0.01,meteohub,2013-09-08 20:01:00,
2013-09-08 16:06:00,75.6,67.1,29.96,NNE,18,0.0,0.0,75,0.00,,,0.01,meteohub,2013-09-08 20:06:00,
2013-09-08 16:11:00,75.9,65.8,29.96,WSW,243,0.0,1.0,71,0.00,,,0.01,meteohub,2013-09-08 20:11:00,
2013-09-08 16:16:00,75.9,66.2,29.97,WSW,243,0.0,1.0,72,0.00,,,0.01,meteohub,2013-09-08 20:16:00,
2013-09-08 16:21:00,76.3,66.6,29.96,West,274,0.0,1.0,72,0.00,,,0.01,meteohub,2013-09-08 20:21:00,
2013-09-08 16:26:00,75.9,65.8,29.96,West,276,0.0,0.0,71,0.00,,,0.01,meteohub,2013-09-08 20:26:00,
2013-09-08 16:31:00,75.7,66.0,29.97,WSW,253,0.0,1.0,72,0.00,,,0.01,meteohub,2013-09-08 20:31:00,
2013-09-08 16:36:00,75.7,66.0,29.97,WSW,253,0.0,1.0,72,0.00,,,0.01,meteohub,2013-09-08 20:36:00,
2013-09-08 16:41:00,75.6,66.7,29.97,SW,233,0.0,0.0,74,0.00,,,0.01,meteohub,2013-09-08 20:41:00,
2013-09-08 16:46:00,75.4,66.6,29.97,SW,225,0.0,0.0,74,0.00,,,0.01,meteohub,2013-09-08 20:46:00,
2013-09-08 16:51:00,75.4,66.6,29.97,WNW,297,0.0,0.0,74,0.00,,,0.01,meteohub,2013-09-08 20:51:00,
2013-09-08 16:56:00,75.4,66.9,29.97,WNW,297,0.0,1.0,75,0.00,,,0.01,meteohub,2013-09-08 20:56:00,
2013-09-08 17:01:00,75.4,66.9,29.96,SW,230,0.0,1.0,75,0.00,,,0.01,meteohub,2013-09-08 21:01:00,
2013-09-08 17:06:00,75.6,67.8,29.96,West,277,0.0,2.0,77,0.00,,,0.01,meteohub,2013-09-08 21:06:00,
2013-09-08 17:11:00,75.7,66.9,29.96,NE,43,0.0,2.0,74,0.00,,,0.01,meteohub,2013-09-08 21:11:00,
2013-09-08 17:16:00,75.7,66.9,29.96,WNW,295,0.0,2.0,74,0.00,,,0.01,meteohub,2013-09-08 21:16:00,
2013-09-08 17:21:00,75.6,65.8,29.96,NW,316,0.0,2.0,72,0.00,,,0.01,meteohub,2013-09-08 21:21:00,
2013-09-08 17:26:00,75.6,66.4,29.96,NW,314,0.0,1.0,73,0.00,,,0.01,meteohub,2013-09-08 21:26:00,
2013-09-08 17:31:00,75.4,66.2,29.96,ENE,74,0.0,1.0,73,0.00,,,0.01,meteohub,2013-09-08 21:31:00,
2013-09-08 17:36:00,75.0,66.6,29.96,NNE,19,0.0,3.0,75,0.00,,,0.01,meteohub,2013-09-08 21:36:00,
2013-09-08 17:41:00,74.5,66.0,29.96,NNE,18,0.0,3.0,75,0.00,,,0.01,meteohub,2013-09-08 21:41:00,
2013-09-08 17:46:00,74.1,66.4,29.96,NE,41,0.0,3.0,77,0.00,,,0.01,meteohub,2013-09-08 21:46:00,
2013-09-08 17:51:00,73.9,66.2,29.96,NE,41,0.0,3.0,77,0.00,,,0.01,meteohub,2013-09-08 21:51:00,
2013-09-08 17:56:00,73.9,67.5,29.96,NE,41,0.0,0.0,80,0.00,,,0.01,meteohub,2013-09-08 21:56:00,
2013-09-08 18:01:00,73.6,67.8,29.96,NE,41,0.0,0.0,82,0.00,,,0.01,meteohub,2013-09-08 22:01:00,
2013-09-08 18:07:00,73.6,67.5,29.96,NE,41,0.0,0.0,81,0.00,,,0.01,meteohub,2013-09-08 22:07:00,
2013-09-08 18:12:00,73.4,67.3,29.96,NE,41,0.0,0.0,81,0.00,,,0.01,meteohub,2013-09-08 22:12:00,
2013-09-08 18:17:00,73.4,66.9,29.96,NE,41,0.0,0.0,80,0.00,,,0.01,meteohub,2013-09-08 22:17:00,
2013-09-08 18:22:00,73.4,66.9,29.96,NE,41,0.0,0.0,80,0.00,,,0.01,meteohub,2013-09-08 22:22:00,
2013-09-08 18:27:00,73.6,67.1,29.96,NE,41,0.0,0.0,80,0.00,,,0.01,meteohub,2013-09-08 22:27:00,
2013-09-08 18:32:00,73.6,67.8,29.96,NNE,25,0.0,1.0,82,0.00,,,0.01,meteohub,2013-09-08 22:32:00,
2013-09-08 18:37:00,73.4,67.3,29.96,NNE,26,0.0,1.0,81,0.00,,,0.01,meteohub,2013-09-08 22:37:00,
2013-09-08 18:42:00,73.4,67.6,29.96,NNE,25,0.0,1.0,82,0.00,,,0.01,meteohub,2013-09-08 22:42:00,
2013-09-08 18:47:00,73.0,67.3,29.96,NNE,26,0.0,0.0,82,0.00,,,0.01,meteohub,2013-09-08 22:47:00,
2013-09-08 18:52:00,72.9,66.4,29.96,NNE,26,0.0,0.0,80,0.00,,,0.01,meteohub,2013-09-08 22:52:00,
2013-09-08 18:57:00,72.9,67.8,29.96,NNE,26,0.0,0.0,84,0.00,,,0.01,meteohub,2013-09-08 22:57:00,
2013-09-08 19:02:00,72.7,67.6,29.96,NNE,25,0.0,0.0,84,0.00,,,0.01,meteohub,2013-09-08 23:02:00,
2013-09-08 19:07:00,72.3,67.3,29.96,NNE,26,0.0,0.0,84,0.00,,,0.01,meteohub,2013-09-08 23:07:00,
2013-09-08 19:12:00,72.0,66.9,29.96,NNE,26,0.0,0.0,84,0.00,,,0.01,meteohub,2013-09-08 23:12:00,
2013-09-08 19:17:00,71.4,66.7,29.96,NNE,25,0.0,0.0,85,0.00,,,0.01,meteohub,2013-09-08 23:17:00,
2013-09-08 19:22:00,71.2,66.9,29.96,NNE,26,0.0,0.0,86,0.00,,,0.01,meteohub,2013-09-08 23:22:00,
2013-09-08 19:27:00,71.1,66.9,29.96,NNE,26,0.0,0.0,87,0.00,,,0.01,meteohub,2013-09-08 23:27:00,
2013-09-08 19:32:00,70.9,66.7,29.96,NNE,26,0.0,0.0,87,0.00,,,0.01,meteohub,2013-09-08 23:32:00,
2013-09-08 19:37:00,70.5,66.7,29.96,NNE,25,0.0,0.0,88,0.00,,,0.01,meteohub,2013-09-08 23:37:00,
2013-09-08 19:42:00,70.3,66.6,29.96,NNE,25,0.0,0.0,88,0.00,,,0.01,meteohub,2013-09-08 23:42:00,
2013-09-08 19:47:00,70.3,66.9,29.97,NNE,26,0.0,0.0,89,0.00,,,0.01,meteohub,2013-09-08 23:47:00,
2013-09-08 19:52:00,70.2,66.7,29.96,NNE,26,0.0,0.0,89,0.00,,,0.01,meteohub,2013-09-08 23:52:00,
2013-09-08 19:57:00,70.0,66.9,29.97,NNE,26,0.0,0.0,90,0.00,,,0.01,meteohub,2013-09-08 23:57:00,
2013-09-08 20:02:00,69.6,66.6,29.97,WNW,283,0.0,0.0,90,0.00,,,0.01,meteohub,2013-09-09 00:02:00,
2013-09-08 20:07:00,69.4,66.4,29.97,WNW,284,0.0,0.0,90,0.00,,,0.00,meteohub,2013-09-09 00:07:00,
2013-09-08 20:12:00,69.3,66.6,29.98,WNW,284,0.0,0.0,91,0.00,,,0.00,meteohub,2013-09-09 00:12:00,
2013-09-08 20:17:00,69.3,66.6,29.98,WNW,284,0.0,0.0,91,0.00,,,0.00,meteohub,2013-09-09 00:17:00,
2013-09-08 20:22:00,69.1,66.4,29.98,WNW,283,0.0,0.0,91,0.00,,,0.00,meteohub,2013-09-09 00:22:00,
2013-09-08 20:27:00,69.1,66.4,29.98,WNW,283,0.0,0.0,91,0.00,,,0.00,meteohub,2013-09-09 00:27:00,
2013-09-08 20:32:00,68.7,65.7,29.98,WNW,284,0.0,1.0,90,0.00,,,0.00,meteohub,2013-09-09 00:32:00,
2013-09-08 20:37:00,68.7,66.0,29.98,WNW,284,0.0,1.0,91,0.00,,,0.00,meteohub,2013-09-09 00:37:00,
2013-09-08 20:42:00,68.4,65.7,29.99,WNW,283,0.0,1.0,91,0.00,,,0.00,meteohub,2013-09-09 00:42:00,
2013-09-08 20:47:00,68.2,65.5,29.99,WNW,284,0.0,0.0,91,0.00,,,0.00,meteohub,2013-09-09 00:47:00,
2013-09-08 20:52:00,68.0,65.7,29.99,WNW,283,0.0,0.0,92,0.00,,,0.00,meteohub,2013-09-09 00:52:00,
2013-09-08 20:57:00,67.8,65.5,29.99,WNW,283,0.0,0.0,92,0.00,,,0.00,meteohub,2013-09-09 00:57:00,
2013-09-08 21:02:00,67.6,65.3,29.99,WNW,283,0.0,0.0,92,0.00,,,0.00,meteohub,2013-09-09 01:02:00,
2013-09-08 21:07:00,67.5,65.1,29.99,WNW,284,0.0,0.0,92,0.00,,,0.00,meteohub,2013-09-09 01:07:00,
2013-09-08 21:12:00,66.9,64.6,29.99,WNW,284,0.0,0.0,92,0.00,,,0.00,meteohub,2013-09-09 01:12:00,
2013-09-08 21:17:00,66.7,64.4,29.99,WNW,283,0.0,0.0,92,0.00,,,0.00,meteohub,2013-09-09 01:17:00,
2013-09-08 21:22:00,66.6,64.2,29.99,WNW,283,0.0,0.0,92,0.00,,,0.00,meteohub,2013-09-09 01:22:00,
2013-09-08 21:27:00,66.4,64.2,30.00,WNW,283,0.0,0.0,93,0.00,,,0.00,meteohub,2013-09-09 01:27:00,
2013-09-08 21:32:00,66.2,64.0,30.00,WNW,284,0.0,0.0,93,0.00,,,0.00,meteohub,2013-09-09 01:32:00,
2013-09-08 21:37:00,66.0,63.9,30.00,WNW,284,0.0,0.0,93,0.00,,,0.00,meteohub,2013-09-09 01:37:00,
2013-09-08 21:42:00,65.8,63.7,30.00,WNW,283,0.0,0.0,93,0.00,,,0.00,meteohub,2013-09-09 01:42:00,
2013-09-08 21:47:00,65.7,63.9,30.00,WNW,284,0.0,0.0,94,0.00,,,0.00,meteohub,2013-09-09 01:47:00,
2013-09-08 21:52:00,65.5,63.7,30.01,WNW,284,0.0,0.0,94,0.00,,,0.00,meteohub,2013-09-09 01:52:00,
2013-09-08 21:57:00,65.1,63.3,30.01,WNW,284,0.0,0.0,94,0.00,,,0.00,meteohub,2013-09-09 01:57:00,
2013-09-08 22:02:00,65.1,63.3,30.01,WNW,284,0.0,0.0,94,0.00,,,0.00,meteohub,2013-09-09 02:02:00,
2013-09-08 22:07:00,64.9,63.1,30.01,WNW,284,0.0,0.0,94,0.00,,,0.00,meteohub,2013-09-09 02:07:00,
2013-09-08 22:12:00,64.8,63.3,30.01,WNW,283,0.0,0.0,95,0.00,,,0.00,meteohub,2013-09-09 02:12:00,
2013-09-08 22:17:00,64.8,63.3,30.01,WNW,284,0.0,0.0,95,0.00,,,0.00,meteohub,2013-09-09 02:17:00,
2013-09-08 22:22:00,64.6,63.1,30.01,WNW,284,0.0,0.0,95,0.00,,,0.00,meteohub,2013-09-09 02:22:00,
2013-09-08 22:27:00,64.2,62.8,30.01,WNW,283,0.0,0.0,95,0.00,,,0.00,meteohub,2013-09-09 02:27:00,
2013-09-08 22:32:00,64.2,62.8,30.01,WNW,283,0.0,0.0,95,0.00,,,0.00,meteohub,2013-09-09 02:32:00,
2013-09-08 22:37:00,64.2,62.8,30.01,WNW,284,0.0,0.0,95,0.00,,,0.00,meteohub,2013-09-09 02:37:00,
2013-09-08 22:42:00,64.0,62.6,30.01,WNW,284,0.0,0.0,95,0.00,,,0.00,meteohub,2013-09-09 02:42:00,
2013-09-08 22:47:00,64.0,62.6,30.01,WNW,284,0.0,0.0,95,0.00,,,0.00,meteohub,2013-09-09 02:47:00,
2013-09-08 22:52:00,63.9,62.8,30.01,WNW,284,0.0,0.0,96,0.00,,,0.00,meteohub,2013-09-09 02:52:00,
2013-09-08 22:57:00,63.9,62.8,30.01,WNW,283,0.0,0.0,96,0.00,,,0.00,meteohub,2013-09-09 02:57:00,
2013-09-08 23:02:00,63.9,62.8,30.02,WNW,283,0.0,0.0,96,0.00,,,0.00,meteohub,2013-09-09 03:02:00,
2013-09-08 23:07:00,63.7,62.6,30.02,WNW,283,0.0,0.0,96,0.00,,,0.00,meteohub,2013-09-09 03:07:00,
2013-09-08 23:12:00,63.7,62.6,30.02,WNW,284,0.0,0.0,96,0.00,,,0.00,meteohub,2013-09-09 03:12:00,
2013-09-08 23:17:00,63.7,62.6,30.02,WNW,284,0.0,0.0,96,0.00,,,0.00,meteohub,2013-09-09 03:17:00,
2013-09-08 23:22:00,63.7,62.6,30.02,WNW,283,0.0,0.0,96,0.00,,,0.00,meteohub,2013-09-09 03:22:00,
2013-09-08 23:27:00,63.5,62.4,30.02,WNW,284,0.0,0.0,96,0.00,,,0.00,meteohub,2013-09-09 03:27:00,
2013-09-08 23:32:00,63.5,62.4,30.03,WNW,283,0.0,0.0,96,0.00,,,0.00,meteohub,2013-09-09 03:32:00,
2013-09-08 23:37:00,63.5,62.4,30.02,WNW,283,0.0,0.0,96,0.00,,,0.00,meteohub,2013-09-09 03:37:00,
2013-09-08 23:42:00,63.7,62.6,30.03,WNW,284,0.0,0.0,96,0.00,,,0.00,meteohub,2013-09-09 03:42:00,
2013-09-08 23:47:00,63.7,62.6,30.03,WNW,283,0.0,0.0,96,0.00,,,0.00,meteohub,2013-09-09 03:47:00,
2013-09-08 23:52:00,63.5,62.4,30.03,WNW,284,0.0,0.0,96,0.00,,,0.00,meteohub,2013-09-09 03:52:00,
2013-09-08 23:57:00,63.3,62.2,30.03,WNW,283,0.0,0.0,96,0.00,,,0.00,meteohub,2013-09-09 03:57:00,